| time (UTC) | temp F | wind direction | speed MPH | gust MPH | rain 1hr in | rain 24hr in | rain mn in | humidity % | barometer mb |
| 20260506202558 | 56 | 41 | 1.0 | 3.0 | 0.00 | 0.46 | 0.44 | 94 | 1012.4 |
| 20260506202059 | 56 | 96 | 0.0 | 3.0 | 0.00 | 0.46 | 0.44 | 95 | 1012.3 |
| 20260506201557 | 56 | 54 | 1.0 | 4.0 | 0.01 | 0.46 | 0.44 | 94 | 1012.0 |
| 20260506201057 | 56 | 86 | 1.0 | 5.0 | 0.01 | 0.46 | 0.44 | 95 | 1011.6 |
| 20260506200557 | 56 | 271 | 0.0 | 5.0 | 0.02 | 0.46 | 0.44 | 95 | 1011.9 |
| 20260506200105 | 56 | 313 | 1.0 | 4.0 | 0.02 | 0.46 | 0.44 | 95 | 1012.1 |
| 20260506195556 | 56 | 338 | 1.0 | 6.0 | 0.02 | 0.46 | 0.44 | 95 | 1012.1 |
| 20260506195102 | 56 | 88 | 2.0 | 7.0 | 0.02 | 0.46 | 0.44 | 95 | 1012.1 |
| 20260506194604 | 56 | 284 | 2.0 | 10.0 | 0.02 | 0.46 | 0.44 | 95 | 1012.0 |
| 20260506194054 | 56 | 111 | 1.0 | 8.0 | 0.02 | 0.46 | 0.44 | 95 | 1011.8 |
| 20260506193558 | 56 | 55 | 1.0 | 5.0 | 0.02 | 0.46 | 0.44 | 95 | 1011.9 |
| 20260506193056 | 56 | 336 | 2.0 | 4.0 | 0.02 | 0.46 | 0.44 | 95 | 1012.2 |
| 20260506192554 | 56 | 22 | 1.0 | 6.0 | 0.02 | 0.46 | 0.44 | 95 | 1012.3 |
| 20260506192054 | 56 | 284 | 2.0 | 6.0 | 0.02 | 0.46 | 0.44 | 95 | 1012.9 |
| 20260506191604 | 57 | 291 | 0.0 | 5.0 | 0.01 | 0.45 | 0.43 | 95 | 1012.6 |
| 20260506191049 | 57 | 252 | 0.0 | 3.0 | 0.01 | 0.45 | 0.43 | 95 | 1012.6 |
| 20260506190549 | 57 | 9 | 1.0 | 4.0 | 0.00 | 0.44 | 0.42 | 95 | 1012.5 |
| 20260506190048 | 57 | 275 | 1.0 | 5.0 | 0.00 | 0.44 | 0.42 | 95 | 1012.5 |
| 20260506185547 | 58 | 311 | 2.0 | 5.0 | 0.00 | 0.44 | 0.42 | 94 | 1012.4 |
| 20260506185046 | 58 | 289 | 1.0 | 4.0 | 0.00 | 0.44 | 0.42 | 95 | 1012.3 |
| 20260506184549 | 58 | 286 | 1.0 | 3.0 | 0.00 | 0.44 | 0.42 | 95 | 1012.3 |
| 20260506184046 | 58 | 269 | 1.0 | 4.0 | 0.00 | 0.44 | 0.42 | 94 | 1012.1 |
| 20260506183545 | 58 | 26 | 2.0 | 4.0 | 0.00 | 0.44 | 0.42 | 94 | 1012.0 |
| 20260506183051 | 59 | 270 | 0.0 | 6.0 | 0.00 | 0.44 | 0.42 | 94 | 1012.1 |
| 20260506182546 | 59 | 71 | 1.0 | 6.0 | 0.00 | 0.44 | 0.42 | 94 | 1011.8 |
| 20260506182044 | 59 | 63 | 1.0 | 3.0 | 0.00 | 0.44 | 0.42 | 94 | 1011.8 |
| 20260506181555 | 59 | 270 | 0.0 | 3.0 | 0.00 | 0.44 | 0.42 | 94 | 1011.7 |
| 20260506181045 | 60 | 269 | 0.0 | 3.0 | 0.00 | 0.44 | 0.42 | 94 | 1012.0 |
| 20260506180544 | 60 | 269 | 0.0 | 1.0 | 0.00 | 0.44 | 0.42 | 94 | 1011.8 |
| 20260506180104 | 60 | 268 | 0.0 | 2.0 | 0.00 | 0.44 | 0.42 | 94 | 1011.8 |
| 20260506175543 | 60 | 268 | 0.0 | 3.0 | 0.00 | 0.44 | 0.42 | 94 | 1011.8 |
| 20260506175043 | 60 | 268 | 1.0 | 3.0 | 0.00 | 0.44 | 0.42 | 94 | 1011.9 |
| 20260506174543 | 60 | 271 | 0.0 | 4.0 | 0.00 | 0.44 | 0.42 | 94 | 1011.8 |
| 20260506174043 | 60 | 276 | 1.0 | 4.0 | 0.00 | 0.44 | 0.42 | 94 | 1011.9 |
| 20260506173545 | 60 | 275 | 0.0 | 2.0 | 0.00 | 0.44 | 0.42 | 94 | 1012.1 |
| 20260506173052 | 59 | 275 | 0.0 | 3.0 | 0.00 | 0.44 | 0.42 | 94 | 1012.1 |
| 20260506172542 | 59 | 275 | 1.0 | 3.0 | 0.00 | 0.44 | 0.42 | 94 | 1012.0 |
| 20260506172042 | 59 | 251 | 0.0 | 3.0 | 0.00 | 0.44 | 0.42 | 94 | 1012.1 |
| 20260506171545 | 59 | 300 | 0.0 | 4.0 | 0.00 | 0.44 | 0.42 | 94 | 1012.2 |
| 20260506171043 | 59 | 304 | 1.0 | 4.0 | 0.00 | 0.44 | 0.42 | 94 | 1012.3 |
| 20260506170543 | 59 | 139 | 1.0 | 5.0 | 0.00 | 0.44 | 0.42 | 94 | 1012.3 |
| 20260506170042 | 59 | 242 | 1.0 | 5.0 | 0.00 | 0.44 | 0.42 | 94 | 1012.2 |
| 20260506165541 | 59 | 271 | 1.0 | 4.0 | 0.00 | 0.44 | 0.42 | 95 | 1012.2 |
| 20260506165041 | 58 | 279 | 0.0 | 4.0 | 0.00 | 0.44 | 0.42 | 95 | 1012.0 |
| 20260506164540 | 58 | 80 | 0.0 | 4.0 | 0.00 | 0.44 | 0.42 | 95 | 1012.0 |
| 20260506164040 | 58 | 98 | 1.0 | 4.0 | 0.00 | 0.44 | 0.42 | 95 | 1011.9 |
| 20260506163540 | 58 | 61 | 0.0 | 4.0 | 0.00 | 0.44 | 0.42 | 95 | 1011.8 |
| 20260506163041 | 58 | 270 | 1.0 | 4.0 | 0.00 | 0.44 | 0.42 | 95 | 1011.8 |
| 20260506162539 | 58 | 202 | 2.0 | 4.0 | 0.00 | 0.44 | 0.42 | 95 | 1011.8 |
| 20260506162041 | 59 | 38 | 1.0 | 5.0 | 0.00 | 0.44 | 0.42 | 95 | 1011.9 |
| 20260506161540 | 58 | 294 | 2.0 | 5.0 | 0.00 | 0.44 | 0.42 | 95 | 1012.0 |
| 20260506161038 | 59 | 40 | 1.0 | 3.0 | 0.00 | 0.44 | 0.42 | 95 | 1012.0 |
| 20260506160537 | 58 | 317 | 0.0 | 4.0 | 0.00 | 0.44 | 0.42 | 95 | 1011.9 |
| 20260506160038 | 58 | 355 | 1.0 | 4.0 | 0.00 | 0.44 | 0.42 | 95 | 1011.9 |
| 20260506155538 | 58 | 234 | 1.0 | 4.0 | 0.00 | 0.44 | 0.42 | 94 | 1011.8 |
| 20260506155036 | 58 | 276 | 1.0 | 4.0 | 0.00 | 0.44 | 0.42 | 94 | 1011.6 |
| 20260506154534 | 58 | 285 | 1.0 | 4.0 | 0.00 | 0.44 | 0.42 | 94 | 1011.5 |
| 20260506154033 | 58 | 323 | 1.0 | 4.0 | 0.00 | 0.44 | 0.42 | 93 | 1011.4 |
| 20260506153532 | 59 | 305 | 0.0 | 5.0 | 0.00 | 0.44 | 0.42 | 94 | 1011.4 |
| 20260506153031 | 59 | 360 | 2.0 | 5.0 | 0.00 | 0.44 | 0.42 | 93 | 1011.3 |
| 20260506152533 | 60 | 251 | 1.0 | 5.0 | 0.00 | 0.44 | 0.42 | 92 | 1011.1 |
| 20260506152031 | 61 | 63 | 1.0 | 6.0 | 0.00 | 0.44 | 0.42 | 92 | 1011.1 |
| 20260506151529 | 62 | 309 | 2.0 | 4.0 | 0.00 | 0.44 | 0.42 | 92 | 1011.0 |
| 20260506151027 | 64 | 111 | 1.0 | 3.0 | 0.00 | 0.44 | 0.42 | 93 | 1010.9 |
| 20260506150527 | 64 | 254 | 0.0 | 4.0 | 0.01 | 0.44 | 0.42 | 94 | 1010.8 |
| 20260506150027 | 64 | 245 | 1.0 | 6.0 | 0.02 | 0.44 | 0.42 | 94 | 1010.7 |
| 20260506145527 | 64 | 188 | 1.0 | 8.0 | 0.03 | 0.44 | 0.42 | 94 | 1010.7 |
| 20260506145026 | 64 | 251 | 2.0 | 8.0 | 0.05 | 0.44 | 0.42 | 94 | 1010.4 |
| 20260506144526 | 64 | 235 | 2.0 | 9.0 | 0.06 | 0.44 | 0.42 | 94 | 1010.3 |
| 20260506144026 | 64 | 171 | 3.0 | 12.0 | 0.07 | 0.44 | 0.42 | 95 | 1009.9 |
| 20260506143525 | 64 | 236 | 4.0 | 12.0 | 0.08 | 0.44 | 0.42 | 95 | 1009.5 |
| 20260506143029 | 65 | 176 | 2.0 | 11.0 | 0.08 | 0.44 | 0.42 | 95 | 1009.3 |
| 20260506142524 | 65 | 203 | 3.0 | 9.0 | 0.08 | 0.44 | 0.42 | 95 | 1009.2 |
| 20260506142024 | 65 | 164 | 3.0 | 8.0 | 0.08 | 0.44 | 0.42 | 95 | 1009.2 |
| 20260506141532 | 64 | 186 | 1.0 | 4.0 | 0.08 | 0.44 | 0.42 | 95 | 1009.2 |
| 20260506141023 | 64 | 161 | 1.0 | 5.0 | 0.08 | 0.44 | 0.42 | 94 | 1009.0 |
| 20260506140522 | 64 | 5 | 1.0 | 5.0 | 0.07 | 0.43 | 0.41 | 93 | 1009.0 |
| 20260506140023 | 64 | 178 | 1.0 | 5.0 | 0.06 | 0.42 | 0.40 | 93 | 1009.8 |
| 20260506135521 | 64 | 169 | 2.0 | 6.0 | 0.05 | 0.41 | 0.39 | 93 | 1010.3 |
| 20260506135024 | 64 | 165 | 2.0 | 7.0 | 0.03 | 0.39 | 0.37 | 93 | 1010.9 |
| 20260506134521 | 64 | 163 | 1.0 | 7.0 | 0.02 | 0.38 | 0.36 | 93 | 1010.8 |
| 20260506134022 | 64 | 92 | 1.0 | 5.0 | 0.01 | 0.37 | 0.35 | 93 | 1010.7 |
| 20260506133519 | 64 | 190 | 0.0 | 3.0 | 0.00 | 0.36 | 0.34 | 93 | 1010.8 |
| 20260506133020 | 64 | 186 | 1.0 | 5.0 | 0.00 | 0.36 | 0.34 | 92 | 1010.5 |
| 20260506132522 | 64 | 188 | 1.0 | 5.0 | 0.00 | 0.36 | 0.34 | 93 | 1010.3 |
| 20260506132018 | 64 | 192 | 1.0 | 4.0 | 0.00 | 0.36 | 0.34 | 93 | 1010.4 |
| 20260506131523 | 64 | 279 | 1.0 | 5.0 | 0.00 | 0.36 | 0.34 | 93 | 1010.2 |
| 20260506131017 | 64 | 169 | 1.0 | 5.0 | 0.00 | 0.36 | 0.34 | 93 | 1010.0 |
| 20260506130517 | 64 | 251 | 2.0 | 7.0 | 0.00 | 0.36 | 0.34 | 92 | 1010.0 |
| 20260506130018 | 64 | 144 | 3.0 | 7.0 | 0.00 | 0.36 | 0.34 | 92 | 1010.1 |
| 20260506125515 | 64 | 196 | 1.0 | 6.0 | 0.00 | 0.36 | 0.34 | 93 | 1010.0 |
| 20260506125014 | 64 | 184 | 2.0 | 6.0 | 0.00 | 0.36 | 0.34 | 93 | 1010.0 |
| 20260506124513 | 64 | 193 | 1.0 | 5.0 | 0.00 | 0.36 | 0.34 | 93 | 1009.8 |
| 20260506124011 | 64 | 223 | 2.0 | 7.0 | 0.00 | 0.36 | 0.34 | 93 | 1009.9 |
| 20260506123515 | 64 | 165 | 3.0 | 7.0 | 0.01 | 0.36 | 0.34 | 93 | 1009.7 |
| 20260506123014 | 64 | 223 | 2.0 | 7.0 | 0.05 | 0.36 | 0.34 | 93 | 1009.6 |
| 20260506122510 | 64 | 178 | 1.0 | 7.0 | 0.10 | 0.36 | 0.34 | 93 | 1009.6 |
| 20260506122014 | 64 | 208 | 2.0 | 7.0 | 0.15 | 0.36 | 0.34 | 93 | 1009.3 |
| 20260506121509 | 64 | 207 | 1.0 | 4.0 | 0.20 | 0.36 | 0.34 | 93 | 1009.3 |
| 20260506121009 | 64 | 184 | 1.0 | 9.0 | 0.23 | 0.36 | 0.34 | 93 | 1009.2 |
| 20260506120509 | 63 | 178 | 1.0 | 5.0 | 0.24 | 0.36 | 0.34 | 93 | 1009.1 |
| 20260506120021 | 63 | 175 | 2.0 | 7.0 | 0.26 | 0.36 | 0.34 | 93 | 1009.2 |
| 20260506115514 | 63 | 187 | 2.0 | 7.0 | 0.27 | 0.36 | 0.34 | 93 | 1009.1 |
| 20260506115008 | 63 | 158 | 2.0 | 8.0 | 0.27 | 0.36 | 0.34 | 93 | 1009.0 |
| 20260506114508 | 63 | 164 | 2.0 | 8.0 | 0.27 | 0.36 | 0.34 | 93 | 1009.1 |
| 20260506114007 | 63 | 261 | 4.0 | 11.0 | 0.27 | 0.36 | 0.34 | 93 | 1008.7 |
| 20260506113506 | 63 | 150 | 4.0 | 11.0 | 0.25 | 0.34 | 0.32 | 92 | 1008.3 |
| 20260506113005 | 63 | 137 | 3.0 | 11.0 | 0.21 | 0.30 | 0.28 | 92 | 1008.9 |
| 20260506112505 | 63 | 118 | 1.0 | 8.0 | 0.16 | 0.25 | 0.23 | 92 | 1009.1 |
| 20260506112006 | 63 | 181 | 2.0 | 9.0 | 0.11 | 0.20 | 0.18 | 92 | 1008.7 |
| 20260506111504 | 63 | 166 | 3.0 | 9.0 | 0.07 | 0.15 | 0.13 | 92 | 1008.7 |
| 20260506111003 | 63 | 188 | 2.0 | 9.0 | 0.07 | 0.13 | 0.11 | 91 | 1009.4 |
| 20260506110503 | 63 | 188 | 2.0 | 6.0 | 0.08 | 0.12 | 0.10 | 91 | 1009.2 |
| 20260506110002 | 63 | 222 | 0.0 | 6.0 | 0.07 | 0.10 | 0.08 | 91 | 1009.6 |
| 20260506105602 | 64 | 229 | 0.0 | 4.0 | 0.07 | 0.09 | 0.07 | 91 | 1009.4 |
| 20260506105103 | 64 | 259 | 1.0 | 4.0 | 0.07 | 0.09 | 0.07 | 90 | 1009.4 |
| 20260506104601 | 64 | 258 | 0.0 | 2.0 | 0.07 | 0.09 | 0.07 | 90 | 1009.2 |
| 20260506104058 | 64 | 258 | 0.0 | 5.0 | 0.07 | 0.09 | 0.07 | 90 | 1009.0 |
| 20260506103600 | 64 | 258 | 1.0 | 5.0 | 0.07 | 0.09 | 0.07 | 90 | 1009.0 |
| 20260506103057 | 64 | 161 | 1.0 | 6.0 | 0.07 | 0.09 | 0.07 | 89 | 1008.7 |
| 20260506102557 | 64 | 213 | 1.0 | 6.0 | 0.07 | 0.09 | 0.07 | 89 | 1008.8 |
| 20260506102056 | 64 | 213 | 1.0 | 4.0 | 0.07 | 0.09 | 0.07 | 88 | 1008.8 |
| 20260506101554 | 64 | 232 | 1.0 | 7.0 | 0.06 | 0.08 | 0.06 | 87 | 1008.6 |
| 20260506101056 | 65 | 177 | 2.0 | 6.0 | 0.04 | 0.06 | 0.04 | 86 | 1008.7 |
| 20260506100553 | 65 | 171 | 2.0 | 6.0 | 0.02 | 0.04 | 0.02 | 85 | 1008.8 |
| 20260506100057 | 66 | 189 | 2.0 | 7.0 | 0.01 | 0.03 | 0.01 | 83 | 1008.9 |
| 20260506095550 | 66 | 130 | 3.0 | 8.0 | 0.00 | 0.02 | 0.00 | 82 | 1008.5 |
| 20260506095051 | 66 | 188 | 2.0 | 10.0 | 0.00 | 0.02 | 0.00 | 80 | 1008.3 |
| 20260506094555 | 67 | 145 | 4.0 | 10.0 | 0.00 | 0.02 | 0.00 | 79 | 1008.1 |
| 20260506094048 | 67 | 202 | 3.0 | 14.0 | 0.00 | 0.02 | 0.00 | 77 | 1008.1 |
| 20260506093547 | 68 | 273 | 2.0 | 8.0 | 0.00 | 0.02 | 0.00 | 76 | 1008.1 |
| 20260506093045 | 68 | 276 | 4.0 | 15.0 | 0.00 | 0.02 | 0.00 | 75 | 1008.0 |
| 20260506092543 | 68 | 242 | 6.0 | 15.0 | 0.00 | 0.02 | 0.00 | 74 | 1007.8 |
| 20260506092045 | 69 | 184 | 5.0 | 12.0 | 0.00 | 0.02 | 0.00 | 73 | 1007.5 |
| 20260506091544 | 68 | 180 | 2.0 | 9.0 | 0.00 | 0.02 | 0.00 | 73 | 1007.7 |
| 20260506091043 | 68 | 175 | 2.0 | 9.0 | 0.00 | 0.02 | 0.00 | 73 | 1007.4 |
| 20260506090542 | 68 | 164 | 3.0 | 10.0 | 0.00 | 0.02 | 0.00 | 73 | 1007.4 |
| 20260506090041 | 68 | 142 | 2.0 | 10.0 | 0.00 | 0.02 | 0.00 | 73 | 1007.3 |
| 20260506085540 | 69 | 263 | 4.0 | 11.0 | 0.00 | 0.02 | 0.00 | 72 | 1007.0 |
| 20260506085043 | 69 | 170 | 5.0 | 15.0 | 0.00 | 0.02 | 0.00 | 71 | 1007.0 |
| 20260506084540 | 69 | 165 | 5.0 | 15.0 | 0.00 | 0.02 | 0.00 | 69 | 1007.1 |
| 20260506084039 | 69 | 212 | 5.0 | 15.0 | 0.00 | 0.02 | 0.00 | 69 | 1007.1 |
| 20260506083539 | 69 | 284 | 4.0 | 15.0 | 0.00 | 0.02 | 0.00 | 68 | 1006.9 |
| 20260506083041 | 69 | 175 | 5.0 | 15.0 | 0.00 | 0.02 | 0.00 | 68 | 1006.7 |
| 20260506082537 | 69 | 170 | 5.0 | 15.0 | 0.00 | 0.02 | 0.00 | 68 | 1006.6 |
| 20260506082037 | 69 | 119 | 6.0 | 16.0 | 0.00 | 0.02 | 0.00 | 67 | 1006.8 |
| 20260506081537 | 69 | 239 | 5.0 | 16.0 | 0.00 | 0.02 | 0.00 | 67 | 1006.9 |
| 20260506081038 | 69 | 198 | 5.0 | 14.0 | 0.00 | 0.02 | 0.00 | 67 | 1007.0 |
| 20260506080537 | 69 | 228 | 4.0 | 14.0 | 0.00 | 0.02 | 0.00 | 67 | 1007.1 |
| 20260506073035 | 69 | 166 | 3.0 | 10.0 | 0.00 | 0.02 | 0.00 | 65 | 1006.9 |
| 20260506072539 | 69 | 207 | 3.0 | 14.0 | 0.00 | 0.02 | 0.00 | 65 | 1006.7 |
| 20260506072035 | 69 | 270 | 5.0 | 14.0 | 0.00 | 0.02 | 0.00 | 65 | 1006.8 |
| 20260506071534 | 69 | 163 | 4.0 | 10.0 | 0.00 | 0.02 | 0.00 | 65 | 1007.0 |
| 20260506071033 | 69 | 213 | 1.0 | 9.0 | 0.00 | 0.02 | 0.00 | 65 | 1007.1 |
| 20260506070534 | 69 | 281 | 3.0 | 9.0 | 0.00 | 0.02 | 0.00 | 65 | 1007.2 |
| 20260506062029 | 69 | 205 | 3.0 | 11.0 | 0.00 | 0.02 | 0.00 | 63 | 1007.6 |
| 20260506061529 | 69 | 238 | 4.0 | 11.0 | 0.00 | 0.02 | 0.00 | 63 | 1007.7 |
| 20260506061028 | 69 | 209 | 4.0 | 12.0 | 0.00 | 0.02 | 0.00 | 63 | 1007.6 |
| 20260506060526 | 69 | 168 | 5.0 | 12.0 | 0.00 | 0.02 | 0.00 | 63 | 1007.7 |
| 20260506051017 | 68 | 280 | 5.0 | 10.0 | 0.00 | 0.02 | 0.00 | 64 | 1008.5 |
| 20260506050516 | 68 | 167 | 2.0 | 10.0 | 0.00 | 0.02 | 0.00 | 65 | 1008.8 |
| 20260506045014 | 68 | 178 | 3.0 | 11.0 | 0.00 | 0.02 | 0.02 | 66 | 1008.7 |
| 20260506044522 | 68 | 95 | 3.0 | 10.0 | 0.00 | 0.02 | 0.02 | 66 | 1008.7 |
| 20260506044013 | 68 | 113 | 3.0 | 9.0 | 0.00 | 0.02 | 0.02 | 65 | 1008.6 |
| 20260506043515 | 68 | 220 | 2.0 | 8.0 | 0.00 | 0.02 | 0.02 | 65 | 1008.7 |
| 20260506043019 | 68 | 220 | 4.0 | 8.0 | 0.00 | 0.02 | 0.02 | 64 | 1008.9 |
| 20260506042514 | 68 | 135 | 3.0 | 8.0 | 0.00 | 0.02 | 0.02 | 64 | 1008.9 |
| 20260506042013 | 68 | 180 | 3.0 | 12.0 | 0.00 | 0.02 | 0.02 | 64 | 1009.0 |
| 20260506041516 | 68 | 218 | 5.0 | 18.0 | 0.00 | 0.02 | 0.02 | 64 | 1008.9 |
| 20260506041015 | 68 | 167 | 5.0 | 18.0 | 0.00 | 0.02 | 0.02 | 64 | 1008.9 |
| 20260506040514 | 68 | 143 | 4.0 | 10.0 | 0.00 | 0.02 | 0.02 | 64 | 1008.8 |
| 20260506040013 | 68 | 232 | 3.0 | 10.0 | 0.00 | 0.02 | 0.02 | 65 | 1008.8 |
| 20260506035513 | 68 | 193 | 3.0 | 7.0 | 0.00 | 0.02 | 0.02 | 65 | 1008.9 |
| 20260506035013 | 68 | 183 | 2.0 | 6.0 | 0.00 | 0.02 | 0.02 | 64 | 1009.1 |
| 20260506034512 | 68 | 221 | 2.0 | 7.0 | 0.00 | 0.02 | 0.02 | 65 | 1009.0 |
| 20260506034011 | 68 | 144 | 1.0 | 9.0 | 0.00 | 0.02 | 0.02 | 64 | 1009.1 |
| 20260506033511 | 68 | 215 | 3.0 | 9.0 | 0.00 | 0.02 | 0.02 | 64 | 1009.1 |
| 20260506033010 | 68 | 232 | 2.0 | 7.0 | 0.00 | 0.02 | 0.02 | 63 | 1009.2 |
| 20260506032510 | 68 | 179 | 2.0 | 7.0 | 0.00 | 0.02 | 0.02 | 64 | 1009.2 |
| 20260506032011 | 68 | 167 | 2.0 | 9.0 | 0.00 | 0.02 | 0.02 | 64 | 1009.2 |
| 20260506031511 | 67 | 182 | 3.0 | 9.0 | 0.00 | 0.02 | 0.02 | 63 | 1008.9 |
| 20260506031011 | 67 | 215 | 4.0 | 9.0 | 0.00 | 0.02 | 0.02 | 63 | 1009.0 |
| 20260506030510 | 67 | 194 | 1.0 | 7.0 | 0.01 | 0.02 | 0.02 | 64 | 1009.0 |
| 20260506030010 | 67 | 155 | 3.0 | 7.0 | 0.01 | 0.02 | 0.02 | 64 | 1009.1 |
| 20260506025510 | 67 | 234 | 2.0 | 8.0 | 0.01 | 0.02 | 0.02 | 63 | 1008.9 |
| 20260506025010 | 67 | 245 | 4.0 | 8.0 | 0.01 | 0.02 | 0.02 | 63 | 1008.9 |
| 20260506024516 | 67 | 187 | 2.0 | 9.0 | 0.01 | 0.02 | 0.02 | 63 | 1009.0 |
| 20260506024011 | 67 | 154 | 3.0 | 9.0 | 0.01 | 0.02 | 0.02 | 63 | 1008.9 |
| 20260506023509 | 67 | 209 | 3.0 | 6.0 | 0.01 | 0.02 | 0.02 | 64 | 1009.2 |
| 20260506023016 | 67 | 198 | 2.0 | 11.0 | 0.01 | 0.02 | 0.02 | 64 | 1009.2 |
| 20260506022509 | 67 | 167 | 2.0 | 11.0 | 0.01 | 0.02 | 0.02 | 65 | 1009.1 |
| 20260506022008 | 66 | 172 | 3.0 | 6.0 | 0.02 | 0.02 | 0.02 | 67 | 1009.3 |
| 20260506021608 | 65 | 265 | 3.0 | 7.0 | 0.02 | 0.02 | 0.02 | 67 | 1009.2 |
| 20260506021011 | 65 | 144 | 2.0 | 8.0 | 0.02 | 0.02 | 0.02 | 69 | 1009.2 |
| 20260506020512 | 64 | 272 | 0.0 | 8.0 | 0.01 | 0.01 | 0.01 | 71 | 1009.4 |
| 20260506020008 | 62 | 294 | 0.0 | 3.0 | 0.01 | 0.01 | 0.01 | 80 | 1009.5 |
| 20260506015508 | 61 | 201 | 0.0 | 0.0 | 0.01 | 0.01 | 0.01 | 83 | 1009.4 |
| 20260506015008 | 61 | 200 | 0.0 | 1.0 | 0.01 | 0.01 | 0.01 | 84 | 1009.6 |
| 20260506014507 | 61 | 201 | 0.0 | 5.0 | 0.01 | 0.01 | 0.01 | 82 | 1009.5 |
| 20260506014005 | 62 | 200 | 0.0 | 5.0 | 0.01 | 0.01 | 0.01 | 80 | 1009.5 |
| 20260506013505 | 62 | 306 | 0.0 | 2.0 | 0.01 | 0.01 | 0.01 | 79 | 1009.4 |
| 20260506013006 | 64 | 306 | 0.0 | 4.0 | 0.01 | 0.01 | 0.01 | 73 | 1009.5 |
| 20260506012505 | 67 | 306 | 1.0 | 6.0 | 0.00 | 0.00 | 0.00 | 63 | 1009.6 |
| 20260506012011 | 68 | 206 | 3.0 | 6.0 | 0.00 | 0.00 | 0.00 | 55 | 1009.6 |
| 20260506011516 | 68 | 201 | 1.0 | 6.0 | 0.00 | 0.00 | 0.00 | 55 | 1009.2 |
| 20260506011008 | 69 | 240 | 2.0 | 8.0 | 0.00 | 0.00 | 0.00 | 52 | 1009.2 |
| 20260506010504 | 69 | 132 | 2.0 | 8.0 | 0.00 | 0.00 | 0.00 | 52 | 1009.0 |
| 20260506010004 | 69 | 130 | 4.0 | 8.0 | 0.00 | 0.00 | 0.00 | 51 | 1009.0 |
| 20260506005505 | 69 | 288 | 3.0 | 9.0 | 0.00 | 0.00 | 0.00 | 51 | 1008.8 |
| 20260506005004 | 69 | 210 | 3.0 | 9.0 | 0.00 | 0.00 | 0.00 | 51 | 1008.7 |
| 20260506004513 | 69 | 145 | 3.0 | 8.0 | 0.00 | 0.00 | 0.00 | 51 | 1008.5 |
| 20260506004003 | 69 | 172 | 3.0 | 12.0 | 0.00 | 0.00 | 0.00 | 51 | 1008.4 |
| 20260506003503 | 69 | 178 | 2.0 | 12.0 | 0.00 | 0.00 | 0.00 | 50 | 1008.5 |
| 20260506003004 | 69 | 167 | 2.0 | 11.0 | 0.00 | 0.00 | 0.00 | 50 | 1008.5 |
| 20260506002502 | 69 | 179 | 2.0 | 8.0 | 0.00 | 0.00 | 0.00 | 50 | 1008.7 |
| 20260506002002 | 69 | 270 | 3.0 | 8.0 | 0.00 | 0.00 | 0.00 | 49 | 1008.6 |
| 20260506001502 | 69 | 140 | 3.0 | 8.0 | 0.00 | 0.00 | 0.00 | 49 | 1008.5 |
| 20260506001002 | 69 | 262 | 3.0 | 12.0 | 0.00 | 0.00 | 0.00 | 49 | 1008.7 |
| 20260506000502 | 69 | 84 | 4.0 | 12.0 | 0.00 | 0.00 | 0.00 | 49 | 1008.8 |
| 20260506000001 | 69 | 257 | 3.0 | 15.0 | 0.00 | 0.00 | 0.00 | 48 | 1009.0 |
| 20260505235501 | 70 | 198 | 5.0 | 15.0 | 0.00 | 0.00 | 0.00 | 48 | 1008.9 |
| 20260505235001 | 69 | 187 | 3.0 | 10.0 | 0.00 | 0.00 | 0.00 | 49 | 1009.1 |
| 20260505234502 | 69 | 267 | 4.0 | 10.0 | 0.00 | 0.00 | 0.00 | 49 | 1008.9 |
| 20260505234103 | 70 | 154 | 2.0 | 10.0 | 0.00 | 0.00 | 0.00 | 49 | 1009.0 |
| 20260505233602 | 70 | 239 | 2.0 | 14.0 | 0.00 | 0.00 | 0.00 | 48 | 1009.1 |
| 20260505233059 | 70 | 180 | 5.0 | 12.0 | 0.00 | 0.00 | 0.00 | 48 | 1008.9 |
| 20260505232559 | 70 | 250 | 3.0 | 10.0 | 0.00 | 0.00 | 0.00 | 48 | 1008.9 |
| 20260505232101 | 71 | 130 | 4.0 | 11.0 | 0.00 | 0.00 | 0.00 | 47 | 1008.5 |
| 20260505231559 | 71 | 151 | 5.0 | 12.0 | 0.00 | 0.00 | 0.00 | 46 | 1008.5 |
| 20260505231058 | 71 | 123 | 3.0 | 10.0 | 0.00 | 0.00 | 0.00 | 46 | 1008.3 |
| 20260505230557 | 71 | 154 | 4.0 | 13.0 | 0.00 | 0.00 | 0.00 | 45 | 1008.7 |
| 20260505230101 | 72 | 223 | 6.0 | 17.0 | 0.00 | 0.00 | 0.00 | 45 | 1008.9 |
| 20260505225557 | 72 | 196 | 5.0 | 17.0 | 0.00 | 0.00 | 0.00 | 45 | 1009.3 |
| 20260505225056 | 73 | 155 | 4.0 | 14.0 | 0.00 | 0.00 | 0.00 | 44 | 1009.4 |
| 20260505224557 | 73 | 162 | 5.0 | 14.0 | 0.00 | 0.00 | 0.00 | 44 | 1009.4 |
| 20260505224057 | 74 | 250 | 3.0 | 14.0 | 0.00 | 0.00 | 0.00 | 43 | 1009.4 |
| 20260505223555 | 74 | 174 | 5.0 | 14.0 | 0.00 | 0.00 | 0.00 | 42 | 1009.4 |
| 20260505223057 | 74 | 206 | 3.0 | 9.0 | 0.00 | 0.00 | 0.00 | 43 | 1009.6 |
| 20260505222555 | 74 | 254 | 3.0 | 16.0 | 0.00 | 0.00 | 0.00 | 43 | 1009.4 |
| 20260505222058 | 75 | 161 | 6.0 | 16.0 | 0.00 | 0.00 | 0.00 | 43 | 1009.5 |
| 20260505221604 | 75 | 122 | 2.0 | 15.0 | 0.00 | 0.00 | 0.00 | 46 | 1009.2 |
| 20260505221055 | 76 | 165 | 5.0 | 11.0 | 0.00 | 0.00 | 0.00 | 44 | 1009.0 |
| 20260505220555 | 76 | 229 | 3.0 | 11.0 | 0.00 | 0.00 | 0.00 | 47 | 1008.9 |
| 20260505220106 | 76 | 175 | 4.0 | 14.0 | 0.00 | 0.00 | 0.00 | 45 | 1008.9 |
| 20260505215554 | 76 | 198 | 3.0 | 14.0 | 0.00 | 0.00 | 0.00 | 44 | 1008.8 |
| 20260505215157 | 76 | 155 | 4.0 | 16.0 | 0.00 | 0.00 | 0.00 | 46 | 1008.9 |
| 20260505214555 | 75 | 157 | 6.0 | 16.0 | 0.00 | 0.00 | 0.00 | 44 | 1008.8 |
| 20260505214053 | 75 | 208 | 7.0 | 17.0 | 0.00 | 0.00 | 0.00 | 43 | 1008.8 |
| 20260505213552 | 76 | 187 | 5.0 | 17.0 | 0.00 | 0.00 | 0.00 | 43 | 1008.7 |
| 20260505213052 | 76 | 165 | 4.0 | 10.0 | 0.00 | 0.00 | 0.00 | 45 | 1008.7 |
| 20260505212551 | 76 | 261 | 5.0 | 18.0 | 0.00 | 0.00 | 0.00 | 45 | 1009.0 |
| 20260505212051 | 75 | 244 | 5.0 | 18.0 | 0.00 | 0.00 | 0.00 | 44 | 1008.9 |
| 20260505211551 | 76 | 159 | 4.0 | 12.0 | 0.00 | 0.00 | 0.00 | 43 | 1008.9 |
| 20260505211050 | 76 | 155 | 4.0 | 12.0 | 0.00 | 0.00 | 0.00 | 44 | 1009.0 |
| 20260505210551 | 76 | 137 | 5.0 | 18.0 | 0.00 | 0.00 | 0.00 | 44 | 1008.8 |
| 20260505210053 | 76 | 200 | 5.0 | 18.0 | 0.00 | 0.00 | 0.00 | 44 | 1009.1 |
| 20260505205548 | 76 | 228 | 5.0 | 14.0 | 0.00 | 0.00 | 0.00 | 44 | 1009.2 |
| 20260505205048 | 76 | 200 | 5.0 | 11.0 | 0.00 | 0.00 | 0.00 | 44 | 1009.3 |
| 20260505204556 | 76 | 163 | 4.0 | 12.0 | 0.00 | 0.00 | 0.00 | 44 | 1009.7 |
| 20260505204048 | 76 | 123 | 5.0 | 13.0 | 0.00 | 0.00 | 0.00 | 44 | 1009.8 |
| 20260505203549 | 76 | 254 | 5.0 | 12.0 | 0.00 | 0.00 | 0.00 | 47 | 1009.8 |
| 20260505203045 | 76 | 165 | 6.0 | 10.0 | 0.00 | 0.00 | 0.00 | 45 | 1010.0 |